This is the latest recevied weather packets stored in our database for station/object KD4EED. If no packets are shown the sender has not sent any weather packets the latest 1 day(s).
| Time | Temp. | Humidity | Pressure | Rain* | Wind** | Luminosity | Snow |
|---|---|---|---|---|---|---|---|
| 1778034015 | 16.67° C | 65% | 1012 hPa | - | - | 10 W/m² | - |
| 1778033712 | 16.67° C | 64% | 1012.1 hPa | - | - | 15 W/m² | - |
| 1778033409 | 16.67° C | 64% | 1011.9 hPa | - | - | 19 W/m² | - |
| 1778033107 | 17.22° C | 63% | 1011.8 hPa | - | - | 20 W/m² | - |
| 1778032804 | 17.22° C | 62% | 1011.8 hPa | - | - | 25 W/m² | - |
| 1778032501 | 17.22° C | 62% | 1011.9 hPa | - | - | 34 W/m² | - |
| 1778032198 | 17.22° C | 62% | 1011.8 hPa | - | - | 37 W/m² | - |
| 1778031895 | 17.22° C | 62% | 1011.9 hPa | - | - | 41 W/m² | - |
| 1778031591 | 17.22° C | 62% | 1011.6 hPa | - | - | 48 W/m² | - |
| 1778031289 | 17.22° C | 61% | 1011.7 hPa | - | - | 52 W/m² | - |
| 1778030985 | 17.22° C | 62% | 1011.7 hPa | - | - | 47 W/m² | - |
| 1778030682 | 17.22° C | 62% | 1011.7 hPa | - | - | 79 W/m² | - |
| 1778030379 | 17.22° C | 62% | 1011.9 hPa | - | - | 66 W/m² | - |
| 1778029773 | 17.22° C | 62% | 1011.9 hPa | - | - | 37 W/m² | - |
| 1778029472 | 17.22° C | 61% | 1012.1 hPa | - | - | 36 W/m² | - |
| 1778029167 | 17.78° C | 60% | 1011.8 hPa | - | - | 44 W/m² | - |
| 1778028866 | 17.78° C | 59% | 1012 hPa | - | - | 52 W/m² | - |
| 1778028560 | 17.78° C | 58% | 1011.8 hPa | - | - | 61 W/m² | - |
| 1778028259 | 17.78° C | 59% | 1011.7 hPa | - | - | 70 W/m² | - |
| 1778027651 | 17.78° C | 58% | 1011.6 hPa | - | - | 67 W/m² | - |
| 1778027348 | 17.78° C | 58% | 1011.5 hPa | - | - | 64 W/m² | - |
| 1778027044 | 17.78° C | 58% | 1011.6 hPa | - | - | 67 W/m² | - |
| 1778026739 | 18.33° C | 57% | 1011.6 hPa | - | - | 70 W/m² | - |
| 1778025528 | 18.89° C | 55% | 1011.7 hPa | - | - | 141 W/m² | - |
| 1778024015 | 19.44° C | 55% | 1011.6 hPa | - | - | 567 W/m² | - |
* Rain since midnight (hover to see other rain measurements)
** Current wind speed in m/s (hover to see current wind gust speed)